Date String (YYYY-MM-DD hh:mm:ss) UTC,Instrument flags,Ambient pressure (hPa),Sample flow (lpm),Bypass flow (lpm),Sample temperature (°C),Ambient temperature (°C),ASC tube jacket temperature (°C),LED temperature (°C),Box temperature (°C),Sample RH (%),Span deviation,Mass concentration (μg/m³),Mass concentration (μg/m³),Mass concentration (μg/m³)
DateTimeUTC,F1_M11,P_M11,Q1_M11,Q2_M11,T1_M11,T2_M11,T3_M11,T4_M11,T5_M11,U1_M11,ZSPAN_M11,X0_M11,X2_M11,X1_M11
2022-08-12 11:00:00,,0830.6,5.00,0.00,29.6,28.1,00.0,38.5,31.5,22.4,0000.0,0010.11,0005.32,0004.56
2022-08-12 11:01:00,,0830.6,5.00,0.00,29.6,28.3,00.0,38.5,31.5,22.5,0000.0,0010.04,0005.28,0004.54
2022-08-12 11:02:00,,0830.7,5.00,0.00,29.6,28.4,00.0,38.5,31.6,22.5,0000.0,0009.91,0005.23,0004.53
2022-08-12 11:03:00,,0830.7,5.00,0.00,29.7,28.4,00.0,38.5,31.6,22.5,0000.0,0009.69,0005.21,0004.51
2022-08-12 11:04:00,,0830.8,5.00,0.00,29.7,28.5,00.0,38.5,31.6,22.3,0000.0,0009.56,0005.18,0004.49
2022-08-12 11:05:00,,0830.8,5.00,0.00,29.7,28.6,00.0,38.5,31.7,22.2,0000.0,0009.19,0005.13,0004.46
2022-08-12 11:06:00,,0830.8,4.99,0.00,29.7,28.7,00.0,38.5,31.7,22.1,0000.0,0008.98,0005.14,0004.43
2022-08-12 11:07:00,,0830.8,5.00,0.00,29.8,28.7,00.0,38.5,31.7,22.2,0000.0,0009.18,0005.12,0004.40
2022-08-12 11:08:00,,0830.7,5.00,0.00,29.8,28.8,00.0,38.5,31.7,22.3,0000.0,0009.41,0005.09,0004.40
2022-08-12 11:09:00,,0830.8,5.01,0.00,29.8,28.8,00.0,38.6,31.8,22.4,0000.0,0009.34,0005.08,0004.39
2022-08-12 11:10:00,,0830.9,4.99,0.00,29.9,28.9,00.0,38.6,31.8,22.7,0000.0,0009.39,0005.08,0004.41
2022-08-12 11:11:00,,0830.9,5.01,0.00,29.8,28.3,00.0,38.5,31.7,22.7,0000.0,0009.56,0005.09,0004.41
2022-08-12 11:12:00,,0830.9,4.99,0.00,29.8,27.7,00.0,38.5,31.5,22.7,0000.0,0009.45,0005.07,0004.40
2022-08-12 11:13:00,,0830.9,5.01,0.00,29.7,27.6,00.0,38.5,31.4,22.8,0000.0,0009.42,0005.06,0004.39
2022-08-12 11:14:00,,0831.0,5.01,0.00,29.7,27.6,00.0,38.5,31.4,23.1,0000.0,0009.43,0005.06,0004.39
2022-08-12 11:15:00,,0830.9,4.99,0.00,29.6,27.7,00.0,38.5,31.4,23.0,0000.0,0009.37,0005.05,0004.40
2022-08-12 11:16:00,,0830.9,5.01,0.00,29.6,27.8,00.0,38.5,31.4,23.0,0000.0,0009.88,0005.06,0004.40
2022-08-12 11:17:00,,0831.0,4.99,0.00,29.6,27.9,00.0,38.5,31.4,23.0,0000.0,0010.87,0005.05,0004.41
2022-08-12 11:18:00,,0831.0,5.01,0.00,29.6,28.0,00.0,38.5,31.5,23.1,0000.0,0010.39,0005.04,0004.42
2022-08-12 11:19:00,,0831.1,5.00,0.00,29.6,28.2,00.0,38.5,31.5,24.7,0000.0,0010.22,0005.09,0004.44
2022-08-12 11:20:00,,0831.1,4.99,0.00,29.6,28.3,00.0,38.5,31.6,25.2,0000.0,0010.41,0005.19,0004.50
2022-08-12 11:21:00,,0831.2,5.01,0.00,29.7,28.4,00.0,38.5,31.6,26.4,0000.0,0010.54,0005.26,0004.56
2022-08-12 11:22:00,,0831.2,4.99,0.00,29.7,28.5,00.0,38.5,31.6,26.6,0000.0,0010.57,0005.37,0004.64
2022-08-12 11:23:00,,0831.2,5.00,0.00,29.7,28.5,00.0,38.5,31.7,26.9,0000.0,0011.23,0005.49,0004.72
2022-08-12 11:24:00,,0831.2,4.99,0.00,29.7,28.6,00.0,38.5,31.7,26.9,0000.0,0012.26,0005.60,0004.79
2022-08-12 11:25:00,,0831.2,5.00,0.00,29.7,28.7,00.0,38.5,31.7,26.7,0000.0,0012.63,0005.67,0004.84
2022-08-12 11:26:00,,0831.2,4.99,0.00,29.8,28.7,00.0,38.5,31.7,27.0,0000.0,0013.32,0005.77,0004.90
2022-08-12 11:27:00,,0831.2,5.00,0.00,29.8,28.8,00.0,38.5,31.8,26.8,0000.0,0014.54,0005.86,0004.96
2022-08-12 11:28:00,,0831.2,5.00,0.00,29.8,28.8,00.0,38.6,31.8,25.9,0000.0,0013.70,0005.92,0005.00
2022-08-12 11:29:00,,0831.2,4.99,0.00,29.8,28.9,00.0,38.6,31.8,25.5,0000.0,0013.75,0005.97,0005.05
2022-08-12 11:30:00,,0831.3,5.00,0.00,29.9,28.9,00.0,38.6,31.9,25.4,0000.0,0014.07,0006.08,0005.09
2022-08-12 11:31:00,,0831.3,5.00,0.00,29.9,29.0,00.0,38.6,31.9,25.5,0000.0,0014.65,0006.06,0005.10
2022-08-12 11:32:00,,0831.4,5.00,0.00,29.9,29.0,00.0,38.6,31.9,25.6,0000.0,0014.56,0006.04,0005.10
2022-08-12 11:33:00,,0831.4,5.00,0.00,29.9,28.8,00.0,38.6,31.8,25.8,0000.0,0014.55,0006.03,0005.07
2022-08-12 11:34:00,,0831.4,5.01,0.00,29.9,28.0,00.0,38.6,31.6,26.0,0000.0,0014.30,0006.05,0005.06
2022-08-12 11:35:00,,0831.3,5.00,0.00,29.8,27.6,00.0,38.6,31.6,26.0,0000.0,0013.53,0006.05,0005.06
2022-08-12 11:36:00,,0831.4,4.99,0.00,29.8,27.6,00.0,38.6,31.5,26.2,0000.0,0013.30,0006.05,0005.06
2022-08-12 11:37:00,,0831.4,5.00,0.00,29.7,27.7,00.0,38.6,31.4,26.5,0000.0,0014.01,0006.06,0005.05
2022-08-12 11:38:00,,0831.4,5.01,0.00,29.7,27.8,00.0,38.6,31.5,26.6,0000.0,0012.85,0006.00,0005.04
2022-08-12 11:39:00,,0831.5,4.99,0.00,29.7,27.9,00.0,38.6,31.5,26.4,0000.0,0013.37,0006.05,0005.05
2022-08-12 11:40:00,,0831.5,5.01,0.00,29.7,28.1,00.0,38.5,31.5,26.6,0000.0,0013.58,0006.09,0005.07
2022-08-12 11:41:00,,0831.5,5.00,0.00,29.7,28.2,00.0,38.5,31.6,26.9,0000.0,0013.75,0006.09,0005.07
2022-08-12 11:42:00,,0831.5,5.00,0.00,29.7,28.3,00.0,38.5,31.6,26.8,0000.0,0014.34,0006.20,0005.09
2022-08-12 11:43:00,,0831.6,5.01,0.00,29.7,28.4,00.0,38.5,31.6,27.0,0000.0,0014.55,0006.25,0005.10
2022-08-12 11:44:00,,0831.6,4.99,0.00,29.7,28.5,00.0,38.6,31.7,27.1,0000.0,0014.73,0006.29,0005.12
2022-08-12 11:45:00,,0831.7,5.00,0.00,29.7,28.6,00.0,38.6,31.7,27.4,0000.0,0014.83,0006.29,0005.11
2022-08-12 11:46:00,,0831.6,5.00,0.00,29.8,28.6,00.0,38.6,31.7,27.5,0000.0,0014.84,0006.27,0005.10
2022-08-12 11:47:00,,0831.6,5.00,0.00,29.8,28.7,00.0,38.6,31.8,27.4,0000.0,0014.80,0006.29,0005.10
2022-08-12 11:48:00,,0831.7,4.99,0.00,29.8,28.7,00.0,38.6,31.8,27.5,0000.0,0013.60,0006.26,0005.10
2022-08-12 11:49:00,,0831.6,5.02,0.00,29.8,28.8,00.0,38.6,31.8,27.4,0000.0,0013.87,0006.32,0005.11
2022-08-12 11:50:00,,0831.7,5.00,0.00,29.9,28.8,00.0,38.6,31.8,27.3,0000.0,0013.87,0006.35,0005.12
2022-08-12 11:51:00,,0831.7,5.00,0.00,29.9,28.9,00.0,38.6,31.8,27.7,0000.0,0014.21,0006.42,0005.14
2022-08-12 11:52:00,,0831.7,5.00,0.00,29.9,28.9,00.0,38.7,31.9,27.6,0000.0,0015.17,0006.49,0005.15
2022-08-12 11:53:00,,0831.7,4.99,0.00,29.9,28.8,00.0,38.7,31.9,27.6,0000.0,0014.03,0006.43,0005.15
2022-08-12 11:54:00,,0831.7,5.01,0.00,29.9,28.1,00.0,38.6,31.7,27.8,0000.0,0014.13,0006.43,0005.15
2022-08-12 11:55:00,,0831.7,5.01,0.00,29.8,27.6,00.0,38.6,31.6,27.8,0000.0,0014.41,0006.42,0005.14
2022-08-12 11:56:00,,0831.7,5.00,0.00,29.8,27.5,00.0,38.6,31.5,28.1,0000.0,0014.86,0006.35,0005.14
2022-08-12 11:57:00,,0831.7,5.00,0.00,29.7,27.5,00.0,38.6,31.4,28.3,0000.0,0014.91,0006.35,0005.15
2022-08-12 11:58:00,,0831.7,4.99,0.00,29.7,27.7,00.0,38.5,31.4,28.5,0000.0,0016.25,0006.36,0005.15
2022-08-12 11:59:00,,0831.7,5.01,0.00,29.7,27.8,00.0,38.5,31.5,28.4,0000.0,0017.37,0006.40,0005.15
